Terminal Aerodrome Forecast
Issued by NWS Wilmington, OH

Home | Current Version | Previous Version | Text Only | Print | Product List | Glossary On
Versions: 1 2 3 4 5 6 7 8 9 10 11 12 13 14 15 16 17 18 19 20 21
000
FTUS41 KILN 311459 AAA
TAFCVG
TAF AMD
KCVG 311459Z 3115/0118 VRB03KT P6SM FEW080 BKN250
     FM311800 05006KT P6SM SCT080 OVC250
     FM010000 08004KT P6SM SCT150 OVC200
     FM011400 14006KT P6SM SCT150=

USA.gov is the U.S. government's official web portal to all federal, state and local government web resources and services.